Date,TemperatureHighF,TemperatureAvgF,TemperatureLowF,DewpointHighF,DewpointAvgF,DewpointLowF,HumidityHigh,HumidityAvg,HumidityLow,PressureMaxIn,PressureMinIn,WindSpeedMaxMPH,WindSpeedAvgMPH,GustSpeedMaxMPH,PrecipitationSumIn
2013-1-1,24.0,16.8,9.9,17.2,13.5,7.3,93,87,75,30.44,30.31,4,1,6,0.00
2013-1-2,35.8,16.5,0.8,29.6,13.0,-2.6,94,86,77,30.40,30.22,7,2,8,0.03
2013-1-3,31.4,20.3,1.0,23.7,16.0,-2.0,92,84,70,30.54,30.40,6,2,6,0.02
2013-1-4,31.5,9.5,-6.1,17.9,3.8,-9.4,90,79,52,30.45,30.27,4,1,5,0.00
2013-1-5,37.5,18.1,2.5,26.4,12.8,-0.5,91,80,64,30.39,30.20,9,3,10,0.01
2013-1-6,39.0,26.1,9.2,25.4,19.1,6.9,92,75,54,30.47,30.20,4,2,5,0.01
2013-1-7,45.2,31.3,18.2,31.8,24.5,16.0,94,76,59,30.19,29.99,6,2,8,0.04
2013-1-8,39.4,22.2,8.8,29.7,18.2,6.5,95,85,67,30.30,29.93,5,1,7,0.00
2013-1-9,44.2,27.6,15.7,31.4,23.1,13.8,95,84,60,30.52,30.30,6,1,6,0.00
2013-1-10,39.0,33.3,21.2,37.1,31.8,19.5,97,94,86,30.37,29.71,2,0,4,0.07
2013-1-11,44.7,38.8,24.6,39.3,36.6,17.5,97,92,74,29.91,29.39,17,4,17,0.00
2013-1-12,24.2,19.3,12.4,16.2,10.4,6.0,80,68,57,30.30,29.91,11,6,16,0.00
2013-1-13,23.5,13.5,7.2,10.7,6.0,2.2,88,72,54,30.47,30.28,9,5,12,0.00
2013-1-14,29.3,23.2,16.2,14.7,12.9,10.6,86,66,47,30.58,30.45,4,1,6,0.00
2013-1-15,35.1,21.8,10.6,22.0,15.8,8.0,90,79,53,30.46,30.20,7,1,10,0.00
2013-1-16,51.1,32.5,17.4,32.8,23.5,12.9,87,72,47,30.19,30.11,11,4,13,0.00
2013-1-17,50.3,36.2,22.2,32.9,27.6,20.2,94,73,47,30.54,30.35,5,2,6,0.00
2013-1-18,59.6,40.3,28.2,33.4,28.2,24.0,85,65,31,30.35,29.98,7,2,9,0.00
2013-1-19,51.6,32.9,25.5,34.0,25.8,22.4,89,76,49,30.33,29.98,7,2,9,0.00
2013-1-20,30.9,23.3,18.5,26.8,18.6,14.7,88,82,73,30.54,30.31,4,1,5,0.00
2013-1-21,28.9,19.5,13.5,20.3,14.4,8.9,92,81,67,30.52,30.35,6,2,8,0.00
2013-1-22,32.2,19.5,11.1,16.4,11.5,7.4,90,72,50,30.41,30.30,5,2,8,0.00
2013-1-23,45.2,24.7,11.1,26.4,17.1,8.8,93,75,44,30.52,30.25,8,2,12,0.00
2013-1-24,23.9,17.5,9.1,11.6,7.2,3.9,82,65,50,30.53,30.23,6,3,9,0.00
2013-1-25,53.2,30.6,13.2,28.5,19.6,9.5,87,67,37,30.36,30.23,5,1,5,0.00
2013-1-26,51.2,37.1,27.6,40.4,29.5,23.7,89,75,47,30.26,29.95,9,2,10,0.01
2013-1-27,45.7,35.4,28.7,40.4,32.9,27.2,96,91,81,29.84,29.74,7,1,10,0.02
2013-1-28,45.5,33.3,26.4,43.7,32.2,25.2,97,96,90,29.85,29.59,11,1,12,0.01
2013-1-29,36.6,33.9,29.9,35.2,31.2,28.9,97,90,80,29.78,29.64,11,6,13,0.01
2013-1-30,30.0,29.5,29.1,29.0,28.5,28.1,96,96,96,29.83,29.78,7,5,11,0.00
2013-1-31,22.3,16.6,7.7,17.3,10.5,2.9,95,77,57,30.54,29.99,10,3,12,0.00
2013-2-1,36.1,22.3,7.0,26.7,16.6,3.9,88,79,61,30.50,30.17,11,4,12,0.00
2013-2-2,50.6,37.4,28.3,30.0,27.6,25.7,90,68,45,30.30,30.20,8,3,10,0.00
2013-2-3,53.7,37.3,21.3,31.1,26.7,19.1,93,68,40,30.32,29.85,12,3,14,0.00
2013-2-4,43.8,34.6,28.2,33.3,28.6,24.5,91,79,63,30.04,29.84,7,2,11,0.00
2013-2-5,29.3,26.2,23.6,26.7,24.0,21.8,93,91,89,29.94,29.93,2,0,2,0.00
2013-2-6,61.3,46.5,28.8,45.6,38.9,25.4,95,76,53,29.99,29.78,12,4,15,0.00
2013-2-7,54.7,42.3,24.0,43.2,31.2,21.2,96,68,36,30.25,29.87,13,4,18,0.00
2013-2-8,40.6,29.3,20.1,33.5,26.7,18.6,96,90,73,30.35,30.10,7,3,10,0.00
2013-2-9,53.4,39.2,29.0,41.9,34.7,27.5,95,84,59,30.10,29.55,17,8,21,0.01
2013-2-10,44.6,36.8,28.3,41.8,28.7,20.7,95,73,57,30.06,29.31,24,14,35,0.00
2013-2-11,32.8,26.1,22.6,22.2,19.5,16.8,83,76,58,30.26,30.07,9,6,10,0.00
2013-2-13,56.5,41.6,22.3,25.2,23.0,17.5,83,51,28,30.00,29.86,12,5,14,0.00
2013-2-14,47.2,35.7,22.4,30.5,24.3,16.3,91,65,37,30.39,29.95,13,6,17,0.00
2013-2-15,40.4,24.1,11.9,23.4,13.5,7.6,90,67,31,30.49,30.36,15,4,15,0.00
2013-2-16,38.6,17.3,8.1,21.3,10.5,4.5,86,76,49,30.47,30.18,11,2,13,0.00
2013-2-20,23.3,21.4,17.7,21.2,18.7,12.3,93,89,79,30.30,30.12,7,5,13,0.00
2013-2-21,21.4,18.6,11.0,19.2,16.6,8.4,93,92,89,30.16,29.90,9,6,13,0.00
2013-2-22,23.5,11.0,1.2,14.6,6.4,-1.8,92,82,67,30.21,30.01,9,3,9,0.00
2013-2-23,1.1,-0.5,-2.3,-1.4,-3.4,-5.2,89,87,86,30.17,30.16,0,0,0,0.00
2013-2-24,34.0,32.7,30.9,29.2,28.7,28.4,91,85,80,30.10,30.03,8,6,10,0.01
2013-2-25,34.3,31.1,28.8,28.5,26.8,24.9,93,84,69,30.11,29.91,11,7,17,0.00
2013-2-26,32.4,26.3,19.0,25.6,21.9,16.3,89,83,74,29.99,29.89,7,5,9,0.00
2013-3-2,37.7,31.7,28.8,30.5,28.4,26.9,93,88,75,30.24,30.14,6,2,7,0.00
2013-3-3,40.0,27.8,22.9,33.4,25.8,21.7,95,92,77,30.13,29.90,0,0,0,0.00
2013-3-11,46.3,40.6,34.7,32.5,30.7,27.2,87,69,49,30.10,29.97,7,2,8,0.01
2013-3-12,37.5,34.5,30.0,32.2,30.4,27.7,91,85,80,30.17,30.11,1,0,1,0.00
2013-3-22,30.8,30.8,30.7,28.1,27.9,27.9,90,89,89,30.01,30.00,2,1,4,0.01
2013-3-23,32.2,30.5,26.1,29.6,27.8,24.4,94,90,83,30.13,29.98,12,5,14,0.02
2013-3-24,36.9,27.0,19.6,25.2,19.4,14.1,93,74,53,30.27,30.14,14,10,19,0.00
2013-3-25,32.6,25.2,17.1,18.4,15.8,13.1,86,69,49,30.47,30.28,12,7,16,0.00
2013-3-26,30.0,14.4,8.4,20.9,11.4,6.3,93,88,67,30.48,30.45,5,0,6,0.00
2013-3-27,46.9,37.6,34.0,30.2,28.7,27.2,78,71,52,30.20,30.15,1,0,2,0.00
2013-3-28,36.6,27.0,21.1,30.4,24.0,19.2,94,89,78,30.22,30.19,1,0,1,0.00
2013-4-1,46.6,39.6,32.0,24.7,23.3,15.0,64,52,39,30.32,30.23,6,2,9,0.00
2013-4-2,54.9,41.1,28.6,29.6,23.8,20.3,79,53,31,30.35,30.23,5,2,7,0.00
2013-4-3,50.9,41.4,32.2,32.5,28.1,22.5,82,62,34,30.35,30.25,10,4,14,0.00
2013-4-4,66.8,45.7,27.2,40.6,33.5,25.5,95,67,34,30.27,30.07,5,2,6,0.00
2013-4-6,72.2,71.6,70.4,43.6,42.4,41.4,36,35,34,29.74,29.71,10,8,16,0.00
2013-4-7,77.1,62.9,43.0,57.7,45.8,37.2,95,60,24,29.79,29.52,15,6,19,0.13
2013-4-8,76.1,62.1,49.2,63.8,56.9,47.7,96,85,56,29.64,29.48,7,3,10,0.01
2013-4-9,64.7,33.9,24.8,59.8,31.8,22.2,95,92,84,30.07,29.47,13,10,22,0.09
2013-4-10,30.7,27.4,24.9,27.3,24.5,22.1,93,88,85,30.13,29.99,12,9,19,0.00
2013-4-11,40.7,31.8,22.8,29.7,24.9,19.7,90,76,57,30.00,29.81,13,8,19,0.00
2013-4-12,55.8,39.2,22.7,37.1,29.5,20.4,92,71,44,30.07,29.92,8,3,10,0.00
2013-4-13,68.4,51.2,30.8,50.7,40.4,29.0,94,69,42,30.07,29.44,15,6,19,0.00
2013-4-14,65.2,55.7,34.6,46.5,30.1,22.0,68,40,22,29.72,29.33,17,9,24,0.00
2013-4-15,50.3,40.8,31.5,29.8,25.5,19.5,83,57,34,30.05,29.70,9,4,12,0.00
2013-4-16,44.2,39.0,33.8,30.8,28.0,24.5,78,65,47,30.21,30.02,9,4,12,0.00
2013-4-17,44.0,39.0,33.6,38.6,35.5,30.2,95,88,58,30.08,29.83,15,7,19,0.32
2013-4-18,37.0,32.7,29.2,31.2,26.7,24.2,94,79,60,30.12,29.87,17,12,29,0.07
2013-4-19,55.4,40.1,25.3,34.9,28.4,21.7,86,65,43,30.12,30.03,12,6,16,0.00
2013-4-22,54.3,44.7,31.9,50.4,41.3,28.3,95,88,74,30.28,29.87,17,5,22,1.26
2013-4-23,38.0,32.2,25.9,28.7,24.7,21.0,94,75,50,30.32,30.21,14,7,21,0.00
2013-4-24,61.6,36.9,19.5,36.5,26.7,18.1,96,72,33,30.32,30.13,10,2,12,0.00
2013-4-26,69.6,59.7,49.5,54.0,49.3,42.9,90,70,55,30.16,30.00,10,3,11,0.00
2013-4-27,73.8,57.6,47.9,54.8,47.8,35.2,94,74,25,30.16,29.92,4,0,7,0.00
2013-4-28,86.6,64.8,44.8,55.8,50.2,43.4,96,65,29,29.93,29.59,11,3,15,0.00
2013-4-29,86.5,66.6,49.8,58.9,51.9,44.9,90,62,33,29.72,29.42,7,1,10,0.00
2013-4-30,78.8,70.0,62.5,60.1,54.0,48.0,75,57,48,29.70,29.44,12,6,15,0.00
2013-5-1,64.8,42.3,33.4,47.8,36.6,31.3,92,82,37,30.46,29.71,16,12,22,0.06
2013-5-2,53.3,42.5,31.3,32.8,29.7,25.8,94,64,36,30.63,30.45,15,8,20,0.03
2013-5-3,57.9,42.0,24.9,31.9,25.8,20.7,92,58,29,30.45,30.08,12,4,16,0.00
2013-5-4,49.2,42.8,31.1,38.3,31.5,24.4,81,65,55,30.19,30.04,13,7,19,0.00
2013-5-5,45.1,42.8,42.2,39.6,38.1,37.2,86,83,80,30.22,30.18,8,5,12,0.00
2013-5-7,71.4,65.1,58.6,59.2,56.2,54.7,93,74,58,29.98,29.84,11,4,14,0.28
2013-5-8,78.3,65.1,55.3,63.0,57.6,52.0,93,78,52,29.89,29.75,10,3,11,0.49
2013-5-9,67.0,57.9,53.6,59.0,54.3,51.9,95,88,67,29.94,29.75,11,5,12,0.07
2013-5-10,62.1,55.8,52.8,50.4,49.5,48.7,86,80,64,30.06,30.03,1,0,1,0.00
2013-5-11,67.7,56.9,42.1,48.0,38.6,29.3,95,56,25,30.30,30.05,10,5,14,0.00
2013-5-12,72.3,54.8,37.9,50.0,40.6,31.8,87,61,38,30.26,30.03,11,4,14,0.02
2013-5-13,90.0,66.0,41.5,60.1,51.4,39.9,95,65,28,30.06,29.82,9,3,15,0.00
2013-5-14,99.0,78.4,52.4,58.8,51.3,42.6,92,47,15,29.82,29.58,12,5,15,0.00
2013-5-15,88.5,74.3,62.4,62.7,56.4,48.8,84,55,37,29.74,29.63,9,3,14,0.00
2013-5-16,80.5,68.6,53.5,63.1,59.8,51.5,96,76,51,29.80,29.66,11,4,14,0.00
2013-5-17,86.2,72.6,54.2,64.3,60.7,52.5,96,69,44,29.82,29.70,8,3,12,0.00
2013-5-18,86.8,71.7,63.2,71.6,65.0,60.6,94,81,59,29.76,29.54,7,3,13,0.00
2013-5-19,75.3,64.4,58.0,56.7,52.3,48.6,76,65,45,29.59,29.43,17,6,21,0.00
2013-5-20,77.2,64.8,52.7,57.8,51.4,46.2,93,65,35,29.71,29.55,15,6,16,0.00
2013-5-21,70.6,61.1,53.2,50.9,47.0,43.5,81,62,41,29.77,29.69,17,8,22,0.00
2013-5-22,74.8,60.4,47.7,52.6,48.3,44.0,88,66,42,29.98,29.78,10,4,17,0.00
2013-5-23,71.6,59.1,44.1,54.8,50.1,42.3,95,74,52,30.14,29.98,7,3,12,0.00
2013-5-24,78.2,66.0,55.6,65.9,58.1,51.7,87,77,58,30.17,29.91,14,6,20,0.00
2013-5-25,87.9,77.2,67.1,67.4,65.1,62.5,92,69,43,29.99,29.76,18,9,24,0.00
2013-5-26,81.9,77.9,75.4,69.0,68.5,67.9,78,73,65,29.65,29.64,11,10,14,0.00
2013-5-27,88.8,75.5,65.2,72.3,67.6,60.9,90,77,56,29.65,29.34,12,6,15,0.03
2013-5-28,87.3,72.3,60.0,71.9,66.0,58.3,96,82,58,29.61,29.43,16,3,22,0.03
2013-5-29,83.0,71.1,57.5,69.4,64.7,55.8,95,81,60,29.57,29.28,20,8,28,0.75
2013-5-30,81.1,64.3,57.1,63.0,57.5,51.2,95,80,36,29.64,29.38,16,3,18,0.37
2013-5-31,59.7,57.8,55.7,55.4,54.3,53.1,91,88,82,29.64,29.58,2,0,5,0.00
2013-6-1,67.3,62.1,50.0,51.2,49.2,46.0,86,63,53,30.07,29.86,13,7,17,0.00
2013-6-2,54.6,44.9,40.8,50.5,43.1,39.5,96,93,86,30.14,30.07,1,0,3,0.00
2013-6-4,79.4,75.0,69.0,67.8,65.3,62.9,83,72,63,29.87,29.79,5,3,9,0.15
2013-6-5,70.4,61.3,54.2,63.2,56.1,50.0,95,84,62,30.02,29.84,10,4,13,0.37
2013-6-6,64.7,51.7,46.2,54.8,49.3,45.1,96,92,69,30.02,29.98,4,1,9,0.00
2013-6-8,73.4,65.6,57.1,66.9,61.1,53.9,93,85,65,29.77,29.59,8,2,8,0.34
2013-6-9,87.6,68.8,50.2,60.8,50.8,-99.9,95,61,23,29.84,29.75,14,-2,18,0.00
2013-6-10,93.6,74.3,52.2,73.5,61.5,49.4,91,67,44,29.84,29.59,9,3,13,0.00
2013-6-11,101.6,87.2,71.6,70.9,64.1,60.1,88,50,27,29.69,29.48,19,8,24,0.00
2013-6-12,96.1,84.5,68.5,70.6,61.4,55.8,69,47,29,29.93,29.48,14,8,17,0.00
2013-6-13,86.6,72.1,56.0,63.9,57.5,51.6,86,62,42,30.02,29.84,6,3,11,0.00
2013-6-14,103.5,84.0,64.9,71.9,62.1,53.6,91,55,20,29.88,29.61,16,6,23,0.00
2013-6-15,86.8,77.6,67.4,72.6,65.3,55.4,93,67,46,29.85,29.69,8,3,10,0.40
2013-6-16,90.8,76.8,60.8,71.2,67.1,58.8,95,75,44,29.95,29.77,24,3,37,1.53
2013-6-17,88.5,74.9,61.6,67.8,63.7,59.7,94,71,41,29.96,29.78,8,2,8,0.05
2013-6-18,87.9,71.2,60.8,65.9,63.1,57.6,95,78,42,29.97,29.85,16,2,16,0.84
2013-6-19,87.4,75.3,62.9,68.6,64.3,60.0,93,71,47,29.90,29.75,12,5,16,0.00
2013-6-20,95.7,81.9,69.4,72.8,68.8,66.1,91,67,42,29.79,29.61,15,8,19,0.00
2013-6-21,97.3,88.4,75.8,70.7,67.3,58.4,78,51,36,29.70,29.60,17,11,26,0.00
2013-6-22,96.2,84.6,75.0,70.7,66.8,63.2,75,57,36,29.73,29.55,18,9,26,0.00
2013-6-23,92.8,81.6,66.9,72.0,66.4,58.8,78,61,46,29.73,29.60,12,4,19,0.00
2013-6-24,91.3,81.6,71.2,70.8,66.8,52.0,91,63,34,29.74,29.52,15,7,20,0.07
2013-6-25,99.4,83.3,69.0,71.1,66.1,53.1,88,60,24,29.63,29.47,23,7,31,0.21
2013-6-26,101.9,84.6,65.2,67.7,64.5,60.6,92,56,27,29.77,29.64,6,2,8,0.00
2013-6-27,99.5,81.2,70.0,79.1,70.9,64.1,89,72,50,29.93,29.70,7,2,11,0.00
2013-6-28,90.8,78.4,63.9,70.5,61.2,55.3,95,62,32,29.97,29.86,9,4,15,0.00
2013-6-29,87.0,75.5,60.9,60.3,55.3,48.2,86,54,28,29.93,29.84,13,5,19,0.00
2013-6-30,82.7,70.6,56.6,58.4,54.2,50.7,90,59,36,30.06,29.92,8,3,13,0.00
2013-7-1,83.4,67.8,50.3,55.9,48.9,41.6,93,57,24,30.15,30.06,6,2,9,0.00
2013-7-2,86.2,70.7,52.2,56.8,51.9,48.2,87,56,29,30.13,29.98,6,1,11,0.00
2013-7-3,88.3,74.0,57.9,56.8,53.6,49.8,84,52,28,30.01,29.83,8,3,12,0.00
2013-7-4,92.7,78.5,62.7,57.2,53.0,48.0,66,44,22,29.89,29.73,14,7,21,0.00
2013-7-5,95.1,83.3,69.5,63.3,59.8,54.9,69,46,31,29.78,29.64,14,8,18,0.00
2013-7-6,95.7,82.9,73.5,67.7,62.6,58.6,70,52,31,29.73,29.58,17,10,28,0.03
2013-7-7,98.5,85.9,76.7,67.4,62.9,58.7,70,48,28,29.78,29.68,9,4,13,0.00
2013-7-8,103.3,86.5,73.9,67.9,64.0,59.3,80,50,25,29.85,29.71,14,6,20,0.00
2013-7-9,102.0,87.4,76.9,70.2,66.7,63.5,77,53,32,29.80,29.74,11,4,11,0.00
2013-7-11,92.7,81.9,67.9,70.5,67.9,65.7,93,65,44,29.99,29.79,8,4,11,0.17
2013-7-12,102.2,86.1,70.4,72.1,67.6,64.9,83,58,31,29.84,29.69,13,6,16,0.00
2013-7-13,103.4,90.7,78.3,73.1,69.3,66.0,72,52,32,29.79,29.66,10,5,15,0.00
2013-7-14,83.9,77.8,70.4,71.6,69.1,63.9,86,75,60,30.00,29.75,9,3,11,0.01
2013-7-15,89.8,74.4,59.6,66.4,62.1,55.7,91,69,32,30.10,30.00,13,2,13,0.00
2013-7-16,90.1,73.4,62.3,72.2,59.7,-99.9,93,69,42,30.17,30.08,11,-24,19,0.11
2013-7-17,93.1,79.9,63.5,69.5,66.2,62.0,95,67,40,30.22,30.06,11,4,16,0.01
2013-7-18,95.9,82.6,68.0,70.0,66.3,62.8,91,62,34,30.08,29.82,14,7,22,0.00
2013-7-20,69.4,69.3,69.0,67.6,67.4,67.2,94,94,93,29.82,29.82,0,0,1,1.57
2013-7-21,87.6,76.3,67.6,73.3,69.7,66.0,95,81,61,29.85,29.69,6,2,9,0.08
2013-7-22,90.3,77.3,69.4,72.7,67.6,60.9,94,74,45,29.78,29.60,14,3,15,0.02
2013-7-23,90.8,74.8,64.2,72.2,66.5,62.7,95,77,47,29.92,29.72,14,3,18,2.22
2013-7-24,89.3,75.5,63.2,66.1,63.7,61.3,95,70,41,30.02,29.88,3,1,6,0.00
2013-7-25,77.6,70.8,67.1,72.0,66.8,63.4,94,87,73,29.98,29.87,8,2,12,0.39
2013-7-26,82.4,72.6,62.9,67.2,63.2,56.3,95,75,51,30.06,29.93,7,3,12,0.01
2013-7-27,67.2,61.7,57.2,59.0,56.6,54.7,93,84,67,30.10,29.96,4,1,6,0.68
2013-7-28,62.0,60.8,58.6,60.6,58.8,56.9,95,93,85,30.00,29.94,5,2,7,1.07
2013-7-29,70.3,64.8,61.2,67.8,63.2,59.8,95,95,91,29.97,29.87,3,2,8,0.58
2013-7-30,72.1,67.2,66.2,68.7,65.5,64.7,95,94,89,30.01,29.94,5,1,8,0.02
2013-8-1,86.8,80.3,76.4,70.5,69.0,68.1,78,69,57,29.79,29.74,10,5,12,0.00
2013-8-2,88.4,77.2,65.1,75.1,69.0,62.3,92,77,61,29.89,29.73,12,4,17,0.06
2013-8-3,79.4,74.0,68.2,70.0,68.0,64.2,90,82,72,30.02,29.84,7,4,11,0.00
2013-8-4,82.8,75.2,69.3,73.9,69.1,62.9,93,82,72,30.00,29.87,6,3,8,0.00
2013-8-5,83.9,75.2,69.6,75.8,71.8,68.1,95,90,75,29.91,29.70,4,1,8,0.00
2013-8-6,89.9,78.5,70.5,76.7,72.6,69.0,95,83,60,29.80,29.69,5,1,7,0.00
2013-8-7,84.3,76.1,67.1,72.9,68.0,61.5,94,77,54,29.89,29.74,15,2,16,0.38
2013-8-8,79.1,70.9,66.1,69.7,65.5,62.9,91,83,67,29.95,29.82,5,1,5,0.00
2013-8-9,66.4,65.1,64.0,64.2,63.2,62.2,95,94,92,29.96,29.94,1,0,1,0.00
2013-8-12,84.9,73.9,63.4,70.2,66.3,61.9,95,79,55,29.99,29.88,12,2,12,0.32
2013-8-13,80.2,70.7,64.3,71.6,66.9,61.9,94,88,72,30.07,29.95,9,1,13,0.19
2013-8-14,78.4,68.3,58.2,66.4,61.9,56.8,96,81,61,30.10,29.95,6,2,10,0.01
2013-8-15,81.1,69.2,64.3,69.1,63.7,61.3,90,83,64,29.99,29.87,7,3,8,0.00
2013-8-16,77.1,70.9,64.6,67.6,65.0,62.2,92,82,72,30.04,30.02,3,2,5,0.00
2013-8-17,73.6,70.1,66.7,63.6,62.0,60.8,82,76,71,30.02,29.98,2,2,4,0.00
2013-8-18,82.4,71.5,60.5,66.4,62.2,57.6,91,74,57,30.05,29.92,9,3,11,0.00
2013-8-19,89.4,76.5,65.0,69.5,65.9,62.3,92,72,48,29.97,29.82,11,4,13,0.00
2013-8-20,75.0,69.7,66.9,67.0,65.7,64.3,92,87,76,29.89,29.86,6,2,8,0.00
2013-9-1,87.5,77.1,61.6,67.8,60.1,51.8,86,59,30,29.93,29.69,17,5,17,0.00
2013-9-2,87.5,71.3,54.1,63.7,58.4,52.6,96,68,39,30.04,29.91,4,1,7,0.00
2013-9-3,91.7,74.5,55.8,64.6,59.8,53.5,95,64,36,30.01,29.89,8,3,11,0.00
2013-9-4,92.4,77.6,64.7,65.2,60.8,57.9,82,59,35,30.03,29.93,9,3,11,0.00
2013-9-5,95.0,77.0,64.7,68.9,58.2,-99.9,86,59,35,30.04,29.93,9,-26,11,0.00
2013-9-6,100.6,84.3,68.6,68.4,63.3,59.2,84,54,26,29.96,29.76,10,5,13,0.00
2013-9-7,106.2,87.7,72.8,66.5,62.8,56.7,74,47,21,29.82,29.70,8,2,12,0.00
2013-9-8,103.0,86.5,66.2,66.0,61.9,58.8,82,48,24,29.76,29.64,10,3,12,0.00
2013-9-9,97.5,84.9,70.5,64.2,58.7,51.6,63,43,22,29.73,29.65,15,8,24,0.00
2013-9-10,85.7,77.8,75.1,63.6,58.9,56.4,60,52,43,29.84,29.73,11,6,13,0.00
2013-9-16,58.8,57.8,56.5,57.3,55.6,53.3,95,92,83,30.20,30.11,4,2,8,0.28
2013-9-17,84.0,70.3,58.8,71.0,65.0,57.4,96,85,64,30.11,29.74,13,5,17,0.01
2013-9-18,94.2,81.1,70.3,70.6,67.0,62.3,88,65,40,29.75,29.55,16,10,25,0.00
2013-9-19,81.1,72.6,58.8,67.7,60.0,50.8,82,65,49,29.99,29.60,13,6,20,0.00
2013-9-20,76.7,59.8,45.3,53.5,48.7,43.9,96,71,36,30.10,29.94,5,1,8,0.00
2013-9-21,85.6,65.4,43.7,53.3,47.9,42.4,96,60,26,29.96,29.75,9,3,13,0.00
2013-9-22,83.0,70.2,59.9,54.5,51.4,49.0,72,53,36,29.78,29.63,16,9,22,0.00
2013-9-23,79.8,67.5,56.7,53.8,50.9,48.6,76,57,38,29.67,29.47,20,9,24,0.00
2013-9-24,76.7,65.4,51.4,56.7,54.2,48.3,89,69,46,29.88,29.63,13,7,17,0.00
2013-9-25,83.7,64.8,44.8,58.7,52.2,43.5,96,68,38,29.86,29.58,10,4,18,0.00
2013-9-26,94.2,78.3,64.2,60.2,57.8,54.9,76,52,31,29.61,29.51,17,8,26,0.00
2013-9-27,91.6,81.0,73.4,63.2,59.5,54.5,70,49,37,29.64,29.52,17,12,25,0.01
2013-9-28,75.3,58.4,47.2,66.4,47.4,39.7,94,70,35,30.04,29.50,19,7,31,0.62
2013-9-29,78.2,58.8,40.7,50.1,44.7,39.4,96,66,30,30.07,29.83,11,4,16,0.00
2013-9-30,82.5,63.5,47.5,55.0,50.2,44.7,92,66,35,29.84,29.66,10,3,14,0.00
2013-10-1,84.5,66.8,49.8,61.0,56.2,48.0,95,72,42,29.87,29.72,4,1,9,0.00
2013-10-2,84.1,73.7,62.6,69.0,64.8,59.6,91,75,60,29.84,29.67,11,5,16,0.00
2013-10-3,89.5,75.1,63.2,68.4,64.3,59.1,88,71,42,29.68,29.49,10,6,17,0.00
2013-10-4,83.7,68.4,46.1,66.4,54.2,30.7,83,62,39,29.97,29.48,16,10,23,0.00
2013-10-5,49.9,44.4,42.1,32.9,31.9,30.3,69,62,48,30.01,29.96,14,7,20,0.00
2013-10-7,34.1,34.1,34.1,31.2,31.2,31.2,89,89,89,30.10,30.10,0,0,0,0.00
2013-10-10,85.2,75.1,59.1,58.9,56.6,52.2,78,54,37,29.82,29.57,14,10,20,0.00
2013-10-11,76.3,64.7,53.6,59.5,50.4,42.6,93,64,34,29.90,29.53,13,6,19,0.17
2013-10-12,68.8,54.1,40.3,46.6,38.5,32.4,94,61,27,30.25,29.90,6,1,11,0.00
2013-10-13,72.2,53.7,33.3,42.6,36.2,31.5,94,59,23,30.37,30.15,9,3,15,0.00
2013-10-14,65.6,57.9,49.2,61.8,52.5,40.2,94,83,46,30.14,29.64,16,6,20,0.95
2013-10-15,56.9,47.4,40.6,43.9,38.0,35.5,87,71,51,30.18,29.89,15,7,21,0.00
2013-10-16,57.6,45.5,34.9,38.4,35.5,32.3,90,70,42,30.18,29.98,8,3,9,0.00
2013-10-17,62.1,44.7,32.5,41.4,36.2,31.2,96,75,42,30.13,29.95,10,4,16,0.00
2013-10-18,50.7,40.2,32.5,34.2,32.3,29.6,93,75,48,30.19,30.09,6,2,12,0.01
2013-10-19,68.5,45.9,28.6,38.9,32.7,26.6,95,67,26,30.10,29.86,8,3,14,0.00